Regional Weather Roundup
Issued by NWS

Home | Current Version | Previous Version | Text Only | Print | Product List | Glossary Off
Versions: 1 2 3 4 5 6 7 8 9 10 11 12 13 14 15 16 17 18 19 20 21 22 23 24 25 26 27 28 29 30 31 32 33 34 35 36 37 38 39 40 41 42 43 44 45 46 47 48 49 50

896
ASUS45 KCYS 251810
RWRWY

WYOMING REGIONAL WEATHER ROUNDUP
NATIONAL WEATHER SERVICE CHEYENNE WY
1200 PM MDT WED MAY 25 2016

NOTE:  "FAIR" INDICATES FEW OR NO CLOUDS BELOW 12,000 FEET
WITH NO SIGNIFICANT WEATHER AND/OR OBSTRUCTIONS TO VISIBILITY.

WYZ001-251900-
YELLOWSTONE NATIONAL PARK

CITY           SKY/WX    TMP DP  RH WIND       PRES   REMARKS
LK YELLOWSTONE   N/A     40  35  83 VRB5      30.06F
6HR MIN TEMP:  33; 6HR MAX TEMP:  40; 6HR PCP:  0.18;

W YELLOWSTONE  NOT AVBL

$$
WYZ002>013-054>058-071-098>099-251900-
NORTHERN WYOMING

CITY           SKY/WX    TMP DP  RH WIND       PRES   REMARKS
JACKSON        PTSUNNY   50  41  71 S10       30.04S
CODY           PTSUNNY   54  43  66 N10       29.94F
GREYBULL       CLOUDY    60  45  57 VRB3      29.90F
6HR MIN TEMP:  49; 6HR MAX TEMP:  60;

WORLAND        FAIR      61  45  55 CALM      29.91F
6HR MIN TEMP:  48; 6HR MAX TEMP:  61; 6HR PCP:  0.04;

SHERIDAN       PTSUNNY   59  43  55 CALM      29.91S
6HR MIN TEMP:  47; 6HR MAX TEMP:  64;

BUFFALO        CLOUDY    55  40  56 SE6       29.94F
6HR MIN TEMP:  46; 6HR MAX TEMP:  57; 6HR PCP:  0.08;

GILLETTE       PTSUNNY   55  43  63 NW6       29.93S
6HR MIN TEMP:  48; 6HR MAX TEMP:  56;

HULETT         CLOUDY    54  45  71 NW5       29.94S
NEWCASTLE      FAIR      59  43  55 W6        29.93S

$$
WYZ014>020-022>026-101>103-251900-
CENTRAL WYOMING

CITY           SKY/WX    TMP DP  RH WIND       PRES   REMARKS
BIG PINEY      PTSUNNY   43  38  82 N18G28    30.07R
6HR MIN TEMP:  38; 6HR MAX TEMP:  49; 6HR PCP:  0.10;

PINEDALE       CLOUDY    43  37  81 N8        30.07R
DUBOIS         FAIR      50  28  43 NW22G28   30.01S
LANDER         FAIR      61  37  41 E6        29.93F
6HR MIN TEMP:  39; 6HR MAX TEMP:  61;

RIVERTON       PTSUNNY   59  38  45 CALM      29.95F
6HR MIN TEMP:  40; 6HR MAX TEMP:  59;

CASPER         LGT RAIN  54  40  59 NW16      29.94S
6HR MIN TEMP:  40; 6HR MAX TEMP:  63; 6HR PCP: TRACE;

DOUGLAS          N/A    N/A N/A N/A MISG      29.94S

$$
WYZ021-027>030-104>119-251900-
SOUTHERN WYOMING

CITY           SKY/WX    TMP DP  RH WIND       PRES   REMARKS
EVANSTON       FAIR      53  32  44 W20G25    30.08S
6HR MIN TEMP:  36; 6HR MAX TEMP:  53;

KEMMERER       LGT RAIN  41  36  81 W10G23    30.11R
FORT BRIDGER   FAIR      55  37  50 W17G23    30.11S
ROCK SPRINGS   PTSUNNY   54  31  41 W16G25    30.05F
6HR MIN TEMP:  37; 6HR MAX TEMP:  56;

DIXON          FAIR      61  27  27 SW21G33   30.10R
RAWLINS        CLOUDY    50  35  56 W17G25    30.05S
6HR MIN TEMP:  39; 6HR MAX TEMP:  59;

SARATOGA       FAIR      59  28  31 SW20      30.07S
LARAMIE        FAIR      58  25  28 W25G36    30.05R
6HR MIN TEMP:  35; 6HR MAX TEMP:  58;

CHEYENNE       PTSUNNY   63  35  35 SW16      30.01S
6HR MIN TEMP:  44; 6HR MAX TEMP:  64; 6HR PCP: TRACE;

TORRINGTON     FAIR      70  30  22 SW23G30   29.92F
6HR MIN TEMP:  40; 6HR MAX TEMP:  71;

PINE BLUFFS    FAIR      68  39  34 S13G21    30.00S

$$




USA.gov is the U.S. government's official web portal to all federal, state and local government web resources and services.